This demonstration page uses our WeatherBlox Daily Observations layout. Learn more.

Left ArrowRight Arrow

31.31129, -92.44514

Hourly Observations for August 31, 2022

Temp ( °F °C ) Dew Point ( °F °C ) Humidity (%) Winds ( mph kmh ) Pressure ( in mb ) Visibility ( mi km ) Precip ( " mm )
1:53 am 01:53 Clear 76 24.4 73 22.8 91 91 NW 3 6 30.00 1016 10 16 0.00 0.00
2:53 am 02:53 Clear 76 24.4 73 22.8 91 91 Calm 30.00 1016 10 16 0.00 0.00
3:53 am 03:53 Clear 75 23.9 73 22.8 94 94 Calm 30.01 1016 9 14 0.00 0.00
4:53 am 04:53 Clear 75 23.9 72 22.2 90 90 Calm 30.01 1016 8 13 0.00 0.00
5:53 am 05:53 Clear 75 23.9 72 22.2 90 90 Calm 30.02 1017 10 16 0.00 0.00
6:53 am 06:53 Sunny 74 23.3 72 22.2 94 94 Calm 30.03 1017 7 11 0.00 0.00
7:53 am 07:53 Sunny 77 25 74 23.3 90 90 Calm 30.04 1017 9 14 0.00 0.00
8:53 am 08:53 Sunny 83 28.3 75 23.9 77 77 NNE 5 7 30.05 1018 10 16 0.00 0.00
9:53 am 09:53 Sunny 86 30 75 23.9 70 70 VRB 5 7 30.06 1018 10 16 0.00 0.00
10:53 am 10:53 Sunny 89 31.7 73 22.8 59 59 NNE 10 17 30.06 1018 10 16 0.00 0.00
11:53 am 11:53 Sunny 91 32.8 74 23.3 58 58 E 6 9 30.05 1018 10 16 0.00 0.00
12:53 pm 12:53 Partly Cloudy 91 32.8 75 23.9 60 60 Calm 30.03 1017 10 16 0.00 0.00
1:53 pm 13:53 Partly Cloudy 92 33.3 75 23.9 58 58 E 5 7 30.01 1016 10 16 0.00 0.00
2:53 pm 14:53 Mostly Sunny 95 35 74 23.3 51 51 Calm 29.98 1015 10 16 0.00 0.00
3:53 pm 15:53 Sunny 92 33.3 75 23.9 58 58 NE 9 15 29.96 1014 10 16 0.00 0.00
4:53 pm 16:53 Sunny 92 33.3 71 21.7 51 51 NNW 6 9 29.94 1014 10 16 0.00 0.00
5:53 pm 17:53 Sunny 93 33.9 73 22.8 52 52 N 3 6 29.93 1014 10 16 0.00 0.00
6:53 pm 18:53 Sunny 92 33.3 75 23.9 58 58 NNE 5 7 29.93 1014 10 16 0.00 0.00
7:53 pm 19:53 Clear 86 30 76 24.4 72 72 N 5 7 29.94 1014 10 16 0.00 0.00
8:53 pm 20:53 Mostly Clear 86 30 77 25 75 75 N 3 6 29.96 1014 10 16 0.01 0.13
9:25 pm 21:25 Mostly Cloudy with Thunderstorms 85 29.4 77 25 77 77 NE 6 9 29.97 1015 10 16 0.00 0.00
9:40 pm 21:40 Mostly Cloudy with Nearby Thunderstorms 85 29.4 77 25 77 77 ENE 7 11 29.97 1015 10 16 0.00 0.00
9:53 pm 21:53 Mostly Cloudy with Nearby Thunderstorms 85 29.4 76 24.4 75 75 E 10 17 29.98 1015 10 16 0.00 0.00
10:04 pm 22:04 Cloudy with Thunderstorms 82 27.8 73 22.8 74 74 E 6 9 29.98 1015 10 16 0.01 0.13
10:19 pm 22:19 Partly Cloudy 80 26.7 73 22.8 79 79 SE 8 13 29.98 1015 10 16 0.01 0.13
10:53 pm 22:53 Clear 79 26.1 74 23.3 85 85 S 3 6 29.98 1015 10 16 0.01 0.13
11:53 pm 23:53 Clear 79 26.1 73 22.8 82 82 Calm 29.98 1015 10 16 0.00 0.00

Powered by AerisWeather